FLOCK 4A-13 (44102 NORAD) Tracking and Keplerian Element Data

This shows tracking and keplerian element data for the satellite.

Feedback or suggestion? Click here.




ElementValue
Catalog44102
NameFLOCK 4A-13
Epoch Orbit309
Epoch Day111.71664242
Epoch Year2019
RAAN172.1184
Inclination97.4617
Eccentricity0.0011429
Argument of Perigee220.2257
Mean Anonmoly139.8134
Mean Motion15.22210644
Decay Rate9E-06
L11 44102U 19018AA 19111.71664242 .00000900 00000-0 42232-4 0 9991
L22 44102 97.4617 172.1184 0011429 220.2257 139.8134 15.22210644 3096

Live tracking and technical data element details for FLOCK 4A-13 (NORAD 44102). FLOCK 4A-13 can be tracked NOW for your location showing map with azimuth and elevation plus other details from your city location.

Track the satellite on the map from your city or location and see movement details for azimuth, elevation, latitude, longitude, range, height, and movement on the map or in text.







IsCatalogInMostPopularTable: catalog: 44102, numindb: 10
Update: records affected: 1



GetName: 44102 FLOCK 4A-13

Hit Count: updated at: Tue, 23 Apr 2019 03:05:59 GMT